RASSVET-3 10

Last updated on Sun Apr 12 2026 00:02:09 GMT+0000 (Coordinated Universal Time)

1 68369U 26061K 26101.48590672 .00088110 15914-5 28542-3 0 9995 2 68369 82.2973 87.4469 0023597 4.4839 355.6639 15.90178237 2986
UTC large
Height (km)
Speed (km/s)
/
Latitude / Longitude
Inclination (degrees)
Orbital Period (minutes)
Azimuth
Elevation
Range (km)
Doppler Factor

Next 0 passes for location: London (51.5072 / 0.1276)

Sorry there are no passes over London.
RASSVET-3 10